Location: Brachstadt
(48.6975°N, 10.6755°E)
Time: 06:22:48
(UTC+00:00)

USA 234 - Pass Details

Date: 18 September 2020
Orbit: 1102 x 1106 km, 123.0° (Epoch: 16 October)

Event Time Altitude Azimuth Distance (km) Brightness Sun altitude
Rises 21:59:14 0° 63° (ENE) 3,925 6.2 -37.5°
Reaches altitude 10° 22:01:47 10° 58° (ENE) 2,966 5.6 -37.7°
Enters shadow 22:03:22 18° 53° (NE) 2,408 5.1 -37.8°
Exits shadow 22:06:55 44° 15° (NNE) 1,479 4.1 -38.0°
Maximum altitude 22:08:00 49° 347° (NNW) 1,405 4.0 -38.1°
Drops below altitude 10° 22:14:14 10° 275° (W) 2,965 5.7 -38.4°
Sets 22:16:47 0° 270° (W) 3,922 6.3 -38.5°
